Weather History for KCCA - October, 2013

Change the Weather History Date:

Monday, October 21, 2013

  Actual Average (KFLP) Record (KFLP)
Temperature  
Mean Temperature 56 °F -  
Max Temperature 69 °F 69 °F 84 °F (2003)
Min Temperature 42 °F 46 °F 30 °F (2011)
Degree Days  
Heating Degree Days 10    
Growing Degree Days 6 (Base 50)    
Moisture  
Dew Point 47 °F    
Average Humidity 85    
Maximum Humidity 100    
Minimum Humidity 49    
Precipitation  
Precipitation 0.13 in - - ()
Sea Level Pressure  
Sea Level Pressure 30.05 in    
Wind  
Wind Speed 1 mph (NW)    
Max Wind Speed 12 mph    
Max Gust Speed 18 mph    
Visibility 9 miles    
Events Rain , Thunderstorm    
Averages and records for this station are not official NWS values.
T = Trace of Precipitation, MM = Missing Value Source: NWS Daily Summary

Daily Weather History Graph

Daily Weather History Graph

Search for Another Location

Airport or City:

Trip Planner

Search our weather history database for the weather conditions in past years. The results will help you decide how hot, cold, wet, or windy it might be!

Date:

Astronomy

Oct. 21, 2013 Rise Set
Actual Time 7:21 AM CDT 6:26 PM CDT
Civil Twilight 6:55 AM CDT 6:52 PM CDT
Nautical Twilight 6:26 AM CDT 7:22 PM CDT
Astronomical Twilight 5:56 AM CDT 7:51 PM CDT
Moon 8:24 PM CDT (10/21) 9:52 AM CDT (10/21)
Length of Visible Light 11h 56m
Length of Day
11h 04m
Waning Gibbous, 92% of the Moon is Illuminated
Oct 21
Waning Gibbous
Oct 26
Last Quarter
Nov 3
New
Nov 9
First Quarter
Nov 17
Full

Hourly Weather History & Observations

Time (CDT) Temp. Dew Point Humidity Pressure Visibility Wind Dir Wind Speed Gust Speed Precip Events Conditions
12:15 AM 44.6 °F 42.8 °F 93% 30.01 in 9.0 mi Calm Calm - N/A   Partly Cloudy
12:35 AM 44.6 °F 42.8 °F 93% 30.01 in 9.0 mi Calm Calm - N/A   Partly Cloudy
12:55 AM 44.6 °F 42.8 °F 93% 30.01 in 9.0 mi Calm Calm - N/A   Clear
1:15 AM 42.8 °F 42.8 °F 100% 30.01 in 8.0 mi Calm Calm - N/A   Clear
1:35 AM 42.8 °F 42.8 °F 100% 30.02 in 8.0 mi Calm Calm - N/A   Clear
1:55 AM 42.8 °F 42.8 °F 100% 30.03 in 9.0 mi Calm Calm - N/A   Scattered Clouds
2:15 AM 44.6 °F 42.8 °F 93% 30.03 in 9.0 mi Calm Calm - N/A   Overcast
2:35 AM 44.6 °F 44.6 °F 100% 30.03 in 10.0 mi Calm Calm - N/A   Mostly Cloudy
2:55 AM 44.6 °F 44.6 °F 100% 30.03 in 9.0 mi Calm Calm - N/A   Mostly Cloudy
3:15 AM 44.6 °F 44.6 °F 100% 30.03 in 9.0 mi Calm Calm - N/A   Mostly Cloudy
3:35 AM 44.6 °F 44.6 °F 100% 30.03 in 10.0 mi Calm Calm - N/A   Mostly Cloudy
3:55 AM 44.6 °F 44.6 °F 100% 30.03 in 8.0 mi Calm Calm - N/A   Partly Cloudy
4:15 AM 44.6 °F 42.8 °F 93% 30.03 in 5.0 mi Calm Calm - N/A   Partly Cloudy
4:35 AM 44.6 °F 42.8 °F 93% 30.03 in 7.0 mi Calm Calm - N/A   Scattered Clouds
4:55 AM 44.6 °F 42.8 °F 93% 30.03 in 8.0 mi Calm Calm - N/A   Scattered Clouds
5:15 AM 44.6 °F 42.8 °F 93% 30.03 in 8.0 mi Calm Calm - N/A   Mostly Cloudy
5:35 AM 42.8 °F 42.8 °F 100% 30.04 in 7.0 mi Calm Calm - N/A   Partly Cloudy
5:55 AM 42.8 °F 42.8 °F 100% 30.04 in 8.0 mi Calm Calm - N/A   Clear
6:15 AM 42.8 °F 42.8 °F 100% 30.05 in 7.0 mi Calm Calm - N/A   Clear
6:35 AM 42.8 °F 42.8 °F 100% 30.05 in 7.0 mi Calm Calm - N/A   Mostly Cloudy
6:55 AM 42.8 °F 42.8 °F 100% 30.05 in 8.0 mi Calm Calm - N/A   Scattered Clouds
7:15 AM 42.8 °F 41.0 °F 93% 30.05 in 7.0 mi Calm Calm - N/A   Clear
7:35 AM 42.8 °F 41.0 °F 93% 30.06 in 7.0 mi Calm Calm - N/A   Clear
7:55 AM 42.8 °F 42.8 °F 100% 30.06 in 7.0 mi Calm Calm - N/A   Clear
8:15 AM 44.6 °F 42.8 °F 93% 30.06 in 8.0 mi Calm Calm - N/A   Clear
8:35 AM 44.6 °F 44.6 °F 100% 30.06 in 8.0 mi Calm Calm - N/A   Partly Cloudy
8:55 AM 48.2 °F 46.4 °F 93% 30.07 in 9.0 mi Calm Calm - N/A   Mostly Cloudy
9:15 AM 50.0 °F 48.2 °F 94% 30.06 in 10.0 mi Calm Calm - N/A   Partly Cloudy
9:35 AM 53.6 °F 48.2 °F 82% 30.06 in 9.0 mi Calm Calm - N/A   Clear
9:55 AM 55.4 °F 50.0 °F 82% 30.05 in 9.0 mi Calm Calm - N/A   Clear
10:15 AM 57.2 °F 50.0 °F 77% 30.05 in 10.0 mi Calm Calm - N/A   Partly Cloudy
10:35 AM 57.2 °F 50.0 °F 77% 30.05 in 10.0 mi Calm Calm - N/A   Partly Cloudy
10:55 AM 60.8 °F 50.0 °F 68% 30.05 in 10.0 mi Calm Calm - N/A   Clear
11:15 AM 62.6 °F 51.8 °F 68% 30.05 in 10.0 mi NNW 3.5 mph - N/A   Clear
11:35 AM 64.4 °F 51.8 °F 64% 30.05 in 10.0 mi Calm Calm - N/A   Clear
11:55 AM 66.2 °F 51.8 °F 60% 30.05 in 10.0 mi Calm Calm - N/A   Clear
12:15 PM 69.8 °F 50.0 °F 49% 30.05 in 10.0 mi West 4.6 mph - N/A   Clear
12:35 PM 69.8 °F 50.0 °F 49% 30.04 in 10.0 mi WNW 3.5 mph - N/A   Clear
12:55 PM 69.8 °F 51.8 °F 53% 30.03 in 10.0 mi East 4.6 mph - N/A   Scattered Clouds
1:15 PM 69.8 °F 51.8 °F 53% 30.02 in 10.0 mi SSE 3.5 mph - N/A   Mostly Cloudy
1:35 PM 69.8 °F 50.0 °F 49% 30.02 in 10.0 mi NW 5.8 mph - N/A   Light Drizzle
1:55 PM 66.2 °F 50.0 °F 56% 30.02 in 10.0 mi NNW 6.9 mph - N/A   Overcast
2:15 PM 66.2 °F 50.0 °F 56% 30.01 in 10.0 mi NNW 5.8 mph - N/A   Overcast
2:35 PM 66.2 °F 50.0 °F 56% 30.02 in 10.0 mi NNW 11.5 mph 18.4 mph N/A   Mostly Cloudy
2:55 PM 64.4 °F 50.0 °F 59% 30.02 in 10.0 mi NNW 5.8 mph 17.3 mph N/A   Mostly Cloudy
3:15 PM 64.4 °F 50.0 °F 59% 30.02 in 10.0 mi NW 9.2 mph - N/A   Mostly Cloudy
3:35 PM 62.6 °F 51.8 °F 68% 30.02 in 10.0 mi NNW 10.4 mph 16.1 mph N/A   Mostly Cloudy
3:55 PM 60.8 °F 48.2 °F 63% 30.02 in 10.0 mi NW 6.9 mph 18.4 mph N/A   Scattered Clouds
4:15 PM 60.8 °F 50.0 °F 68% 30.03 in 10.0 mi NNW 3.5 mph - N/A   Scattered Clouds
4:35 PM 57.2 °F 48.2 °F 72% 30.02 in 10.0 mi North 8.1 mph - N/A   Overcast
4:55 PM 55.4 °F 48.2 °F 77% 30.06 in 10.0 mi NW 8.1 mph - N/A   Overcast
5:15 PM 55.4 °F 51.8 °F 88% 30.05 in 4.0 mi NNW 4.6 mph - N/A Thunderstorm Light Drizzle
5:35 PM 53.6 °F 51.8 °F 94% 30.06 in 2.5 mi Calm Calm - 0.05 in Rain Rain
5:55 PM 53.6 °F 51.8 °F 94% 30.06 in 4.0 mi Calm Calm - 0.11 in Rain Rain
6:15 PM 53.6 °F 51.8 °F 94% 30.06 in 7.0 mi Calm Calm - N/A Rain Light Rain
6:35 PM 51.8 °F 50.0 °F 94% 30.07 in 5.0 mi Calm Calm - 0.01 in Rain Light Rain
6:55 PM 51.8 °F 50.0 °F 94% 30.06 in 5.0 mi Calm Calm - 0.01 in   Light Drizzle
7:15 PM 51.8 °F 50.0 °F 94% 30.06 in 7.0 mi Calm Calm - 0.01 in Rain Light Rain
7:35 PM 51.8 °F 50.0 °F 94% 30.06 in 6.0 mi Calm Calm - 0.01 in   Light Drizzle
7:55 PM 51.8 °F 50.0 °F 94% 30.06 in 9.0 mi Calm Calm - 0.01 in   Mostly Cloudy
8:15 PM 51.8 °F 50.0 °F 94% 30.06 in 10.0 mi Calm Calm - N/A   Mostly Cloudy
8:35 PM 51.8 °F 50.0 °F 94% 30.07 in 10.0 mi Calm Calm - N/A   Mostly Cloudy
8:55 PM 51.8 °F 50.0 °F 94% 30.07 in 9.0 mi Calm Calm - N/A   Mostly Cloudy
9:15 PM 51.8 °F 50.0 °F 94% 30.08 in 10.0 mi Calm Calm - N/A   Mostly Cloudy
9:35 PM 51.8 °F 51.8 °F 100% 30.08 in 10.0 mi Calm Calm - N/A   Overcast
9:55 PM 51.8 °F 50.0 °F 94% 30.09 in 10.0 mi Calm Calm - N/A   Overcast
10:15 PM 51.8 °F 50.0 °F 94% 30.09 in 10.0 mi NW 3.5 mph - N/A   Mostly Cloudy
10:35 PM 50.0 °F 48.2 °F 94% 30.09 in 10.0 mi Calm Calm - N/A   Partly Cloudy
10:55 PM 50.0 °F 46.4 °F 87% 30.09 in 10.0 mi Calm Calm - N/A   Partly Cloudy
11:15 PM 48.2 °F 46.4 °F 93% 30.09 in 10.0 mi Calm Calm - N/A   Mostly Cloudy
11:35 PM 48.2 °F 46.4 °F 93% 30.09 in 10.0 mi Calm Calm - N/A   Scattered Clouds
11:55 PM 48.2 °F 46.4 °F 93% 30.10 in 10.0 mi Calm Calm - N/A   Scattered Clouds